Beckley, WV

4:09 AM EST on November 12, 2019 (GMT -0500)
Raleigh County Memorial

Weather History for KBKW - July, 2019

Change the Weather History Date:

Thursday, July 11, 2019

  Actual Average Record
Temperature  
Mean Temperature 75 °F 71 °F  
Max Temperature 83 °F 80 °F 91 °F (1936)
Min Temperature 67 °F 62 °F 40 °F (1953)
Degree Days  
Heating Degree Days 0 0  
Month to date heating degree days 0 0  
Since 1 June heating degree days 33 39  
Since 1 July heating degree days 0 0  
Cooling Degree Days 10 6  
Month to date cooling degree days 112 66  
Year to date cooling degree days 338 218  
Since 1 June cooling degree days 218 177  
Growing Degree Days 25 (Base 50)    
Moisture  
Dew Point 67 °F    
Average Humidity 78    
Maximum Humidity 90    
Minimum Humidity 65    
Precipitation  
Precipitation 0.05 in 0.15 in 3.50 in (1919)
Month to date precipitation 1.99 1.67  
Year to date precipitation 24.88 22.83  
Sea Level Pressure  
Sea Level Pressure 29.92 in    
Wind  
Wind Speed 6 mph (SW)    
Max Wind Speed 15 mph    
Max Gust Speed 21 mph    
Visibility 10 miles    
Events Rain    
T = Trace of Precipitation, MM = Missing Value Source: NWS Daily Summary

Daily Weather History Graph

Daily Weather History Graph

Search for Another Location

Airport or City:

Astronomy

Jul. 11, 2019 Rise Set
Actual Time 6:11 AM EDT 8:47 PM EDT
Civil Twilight 5:40 AM EDT 9:18 PM EDT
Nautical Twilight 5:02 AM EDT 9:56 PM EDT
Astronomical Twilight 4:19 AM EDT 10:39 PM EDT
Moon 4:02 PM EDT (7/11) 2:17 AM EDT (7/11)
Length of Visible Light 15h 37m
Length of Day
14h 36m
Waxing Gibbous, 74% of the Moon is Illuminated
Jul 11
Waxing Gibbous
Jul 16
Full
Jul 24
Last Quarter
Jul 31
New
Aug 7
First Quarter

Hourly Weather History & Observations

Time (EDT) Temp. Heat Index Dew Point Humidity Pressure Visibility Wind Dir Wind Speed Gust Speed Precip Events Conditions
12:51 AM 70.0 °F - 66.9 °F 90% 29.96 in 10.0 mi ESE 3.5 mph - N/A   Clear
1:51 AM 70.0 °F - 66.9 °F 90% 29.94 in 10.0 mi Calm Calm - N/A   Clear
2:51 AM 70.0 °F - 66.9 °F 90% 29.93 in 10.0 mi Calm Calm - N/A   Clear
3:51 AM 70.0 °F - 66.0 °F 87% 29.91 in 10.0 mi SSE 6.9 mph - N/A   Clear
4:51 AM 69.1 °F - 64.9 °F 87% 29.92 in 10.0 mi SE 4.6 mph - N/A   Partly Cloudy
5:51 AM 68.0 °F - 64.9 °F 90% 29.95 in 9.0 mi Calm Calm - N/A   Mostly Cloudy
6:51 AM 71.1 °F - 66.0 °F 84% 29.94 in 10.0 mi South 3.5 mph - N/A   Scattered Clouds
7:51 AM 72.0 °F - 66.9 °F 84% 29.94 in 10.0 mi SSW 4.6 mph - N/A   Overcast
8:51 AM 73.0 °F - 66.9 °F 81% 29.94 in 10.0 mi SW 4.6 mph - N/A   Partly Cloudy
9:51 AM 75.9 °F - 69.1 °F 79% 29.94 in 10.0 mi WSW 6.9 mph - N/A   Scattered Clouds
10:51 AM 78.1 °F - 69.1 °F 74% 29.91 in 10.0 mi SW 8.1 mph - N/A   Clear
11:51 AM 82.0 °F 85.5 °F 69.1 °F 65% 29.89 in 10.0 mi SW 11.5 mph - N/A   Clear
12:37 PM 80.1 °F 82.7 °F 68.0 °F 67% 30.01 in 10.0 mi WSW 9.2 mph - N/A   Mostly Cloudy
12:47 PM 78.8 °F - 66.2 °F 65% 30.01 in 10.0 mi West 11.5 mph - N/A   Scattered Clouds
12:51 PM 79.0 °F - 68.0 °F 69% 29.90 in 9.0 mi WSW 10.4 mph - 0.00 in Rain Light Rain
1:51 PM 77.0 °F - 70.0 °F 79% 29.89 in 10.0 mi West 10.4 mph - 0.05 in   Scattered Clouds
2:51 PM 79.0 °F - 68.0 °F 69% 29.87 in 10.0 mi WNW 9.2 mph - N/A   Scattered Clouds
2:58 PM 80.1 °F 82.9 °F 69.1 °F 69% 29.99 in 10.0 mi WNW 9.2 mph - N/A   Mostly Cloudy
4:09 PM 81.0 °F 83.3 °F 66.9 °F 62% 29.96 in 10.0 mi WSW 8.1 mph - N/A   Scattered Clouds
4:51 PM 80.1 °F 82.7 °F 68.0 °F 67% 29.84 in 10.0 mi SW 9.2 mph - N/A   Mostly Cloudy
5:51 PM 78.1 °F - 66.9 °F 68% 29.85 in 10.0 mi SW 9.2 mph - N/A   Clear
6:51 PM 78.1 °F - 68.0 °F 71% 29.82 in 10.0 mi SW 10.4 mph - N/A   Scattered Clouds
7:10 PM 77.0 °F - 66.9 °F 71% 29.96 in 10.0 mi West 11.5 mph - N/A   Mostly Cloudy
7:19 PM 75.9 °F - 66.0 °F 71% 29.96 in 10.0 mi WSW 8.1 mph - N/A   Mostly Cloudy
7:51 PM 75.0 °F - 66.0 °F 73% 29.84 in 10.0 mi WSW 6.9 mph - 0.00 in   Overcast
8:51 PM 73.9 °F - 66.0 °F 76% 29.86 in 10.0 mi West 5.8 mph - N/A   Mostly Cloudy
9:51 PM 72.0 °F - 66.9 °F 84% 29.87 in 10.0 mi Calm Calm - N/A   Partly Cloudy
10:10 PM 73.0 °F - 68.0 °F 84% 29.99 in 10.0 mi WSW 4.6 mph - N/A   Mostly Cloudy
10:39 PM 71.1 °F - 68.0 °F 90% 29.98 in 10.0 mi SW 4.6 mph - N/A   Mostly Cloudy
10:51 PM 72.0 °F - 66.9 °F 84% 29.86 in 10.0 mi SW 5.8 mph - N/A   Scattered Clouds
11:51 PM 70.0 °F - 66.9 °F 90% 29.86 in 10.0 mi SW 6.9 mph - N/A   Mostly Cloudy